Zurück zum Katalog

STARLINK-31866

AktivKommunikationVLEO
NORAD 59668·PAYLOAD·🇺🇸 United States

Gestartet May 6, 2024 von Cape Canaveral Space Force Station

Loading…

Nächste Überflüge (nächste 24 Stunden)

TLE

AktuellSource: CelesTrak SupGP

Epoche: Sep 15, 2026, 01:47 UTC

1 59668C 24084Q   26258.07479167 -.00025318  00000+0 -91722-3 0  2588
2 59668  43.0030  44.8470 0001785 274.2367  43.9255 15.27582794    14

Verfolge STARLINK-31866 in Echtzeit mit AllMySat

Download on the App Store